カタログに戻る

TIANQI 23

運用中通信LEO
NORAD 57794·PAYLOAD·🇨🇳 China

打ち上げ Sep 5, 2023 から Yellow Sea Launch Area

Loading…

次のパス (今後24時間)

TLE

最新Source: Space-Track

元期: Sep 14, 2026, 14:39 UTC

1 57794U 23135C   26257.61090797  .00000111  00000-0  11872-3 0  9992
2 57794  49.9722 136.3216 0013136 213.0045 147.0048 14.23084599157369

AllMySatでTIANQI 23をリアルタイム追跡

Download on the App Store